| time (UTC) | temp C | wind direction | speed KPH | gust KPH | rain 1hr cm | rain 24hr cm | rain mn cm | humidity % | barometer mb |
| 20260510130741 | 8 | 326 | 3.2 | 8.0 | 0.00 | 0.05 | 0.03 | 55 | 1019.3 |
| 20260510125747 | 7 | 326 | 3.2 | 8.0 | 0.00 | 0.05 | 0.03 | 55 | 1019.4 |
| 20260510124749 | 6 | 325 | 3.2 | 9.7 | 0.00 | 0.05 | 0.03 | 57 | 1019.4 |
| 20260510123750 | 6 | 329 | 9.7 | 9.7 | 0.00 | 0.05 | 0.03 | 55 | 1019.3 |
| 20260510122752 | 6 | 29 | 1.6 | 6.4 | 0.00 | 0.05 | 0.03 | 54 | 1019.3 |
| 20260510121749 | 6 | 29 | 4.8 | 8.0 | 0.00 | 0.05 | 0.03 | 54 | 1019.4 |
| 20260510120755 | 6 | 55 | 4.8 | 6.4 | 0.00 | 0.05 | 0.03 | 54 | 1019.4 |
| 20260510115757 | 6 | 56 | 0.0 | 6.4 | 0.00 | 0.05 | 0.03 | 56 | 1019.4 |
| 20260510114756 | 7 | 57 | 3.2 | 6.4 | 0.00 | 0.05 | 0.03 | 54 | 1019.3 |
| 20260510113739 | 7 | 57 | 6.4 | 8.0 | 0.00 | 0.05 | 0.03 | 53 | 1019.3 |
| 20260510112747 | 6 | 94 | 1.6 | 8.0 | 0.00 | 0.05 | 0.03 | 55 | 1019.3 |
| 20260510111748 | 6 | 261 | 1.6 | 6.4 | 0.00 | 0.05 | 0.03 | 60 | 1019.5 |
| 20260510110750 | 6 | 1 | 6.4 | 8.0 | 0.00 | 0.05 | 0.03 | 61 | 1019.4 |
| 20260510105750 | 6 | 36 | 3.2 | 6.4 | 0.00 | 0.05 | 0.03 | 60 | 1019.2 |
| 20260510104810 | 6 | 36 | 1.6 | 6.4 | 0.00 | 0.05 | 0.03 | 59 | 1019.0 |
| 20260510103754 | 6 | 36 | 1.6 | 4.8 | 0.00 | 0.05 | 0.03 | 59 | 1019.0 |
| 20260510102754 | 6 | 36 | 3.2 | 4.8 | 0.00 | 0.05 | 0.03 | 59 | 1019.1 |
| 20260510101755 | 6 | 36 | 3.2 | 6.4 | 0.00 | 0.05 | 0.03 | 59 | 1019.3 |
| 20260510100754 | 6 | 36 | 6.4 | 6.4 | 0.00 | 0.05 | 0.03 | 57 | 1019.2 |
| 20260510095740 | 7 | 36 | 0.0 | 3.2 | 0.00 | 0.05 | 0.03 | 56 | 1019.3 |
| 20260510094740 | 7 | 36 | 1.6 | 6.4 | 0.00 | 0.05 | 0.03 | 57 | 1019.2 |
| 20260510093741 | 7 | 32 | 0.0 | 6.4 | 0.00 | 0.05 | 0.03 | 54 | 1019.1 |
| 20260510092745 | 8 | 74 | 0.0 | 4.8 | 0.00 | 0.05 | 0.03 | 54 | 1019.1 |
| 20260510091810 | 8 | 73 | 0.0 | 6.4 | 0.00 | 0.05 | 0.03 | 53 | 1019.1 |
| 20260510090749 | 8 | 74 | 0.0 | 11.3 | 0.00 | 0.05 | 0.03 | 53 | 1019.1 |
| 20260510085751 | 8 | 53 | 8.0 | 8.0 | 0.00 | 0.05 | 0.03 | 55 | 1019.0 |
| 20260510084750 | 8 | 65 | 0.0 | 0.0 | 0.00 | 0.05 | 0.03 | 58 | 1019.0 |
| 20260510083753 | 8 | 65 | 0.0 | 6.4 | 0.00 | 0.05 | 0.03 | 61 | 1019.0 |
| 20260510082817 | 8 | 65 | 3.2 | 4.8 | 0.00 | 0.05 | 0.03 | 62 | 1019.2 |
| 20260510081755 | 9 | 64 | 1.6 | 4.8 | 0.00 | 0.05 | 0.03 | 60 | 1019.1 |
| 20260510080757 | 10 | 64 | 1.6 | 3.2 | 0.00 | 0.05 | 0.03 | 56 | 1019.2 |
| 20260510075756 | 10 | 65 | 0.0 | 11.3 | 0.00 | 0.05 | 0.03 | 56 | 1019.0 |
| 20260510074742 | 10 | 63 | 6.4 | 9.7 | 0.00 | 0.05 | 0.03 | 54 | 1018.9 |
| 20260510073742 | 10 | 42 | 3.2 | 14.5 | 0.00 | 0.05 | 0.03 | 54 | 1018.9 |
| 20260510072802 | 10 | 56 | 4.8 | 16.1 | 0.00 | 0.05 | 0.03 | 53 | 1018.9 |
| 20260510071745 | 10 | 61 | 1.6 | 11.3 | 0.00 | 0.05 | 0.03 | 55 | 1018.8 |
| 20260510070746 | 10 | 46 | 9.7 | 9.7 | 0.00 | 0.05 | 0.03 | 54 | 1019.0 |
| 20260510065808 | 10 | 56 | 3.2 | 14.5 | 0.03 | 0.05 | 0.03 | 52 | 1018.9 |
| 20260510064752 | 10 | 42 | 3.2 | 9.7 | 0.03 | 0.05 | 0.03 | 55 | 1018.8 |
| 20260510063754 | 10 | 34 | 4.8 | 14.5 | 0.05 | 0.05 | 0.03 | 55 | 1018.6 |
| 20260510062755 | 10 | 30 | 6.4 | 11.3 | 0.05 | 0.05 | 0.03 | 56 | 1018.8 |
| 20260510061758 | 10 | 41 | 9.7 | 16.1 | 0.05 | 0.05 | 0.03 | 56 | 1018.6 |
| 20260510060743 | 10 | 28 | 9.7 | 20.9 | 0.05 | 0.05 | 0.03 | 54 | 1018.5 |
| 20260510055744 | 10 | 32 | 16.1 | 16.1 | 0.03 | 0.03 | 0.03 | 55 | 1018.5 |
| 20260510054747 | 10 | 31 | 8.0 | 14.5 | 0.03 | 0.03 | 0.03 | 58 | 1018.6 |
| 20260510053751 | 11 | 30 | 3.2 | 9.7 | 0.00 | 0.00 | 0.00 | 52 | 1018.8 |
| 20260510052757 | 12 | 13 | 4.8 | 8.0 | 0.00 | 0.00 | 0.00 | 48 | 1018.6 |
| 20260510051819 | 12 | 354 | 6.4 | 9.7 | 0.00 | 0.00 | 0.00 | 45 | 1018.6 |
| 20260510050757 | 12 | 355 | 8.0 | 11.3 | 0.00 | 0.00 | 0.00 | 42 | 1018.7 |
| 20260510045758 | 12 | 358 | 4.8 | 6.4 | 0.00 | 0.00 | 0.00 | 43 | 1018.5 |
| 20260510044742 | 12 | 355 | 3.2 | 4.8 | 0.00 | 0.00 | 0.00 | 44 | 1018.3 |
| 20260510043748 | 13 | 355 | 3.2 | 4.8 | 0.00 | 0.00 | 0.00 | 46 | 1018.2 |
| 20260510042749 | 13 | 355 | 0.0 | 4.8 | 0.00 | 0.00 | 0.00 | 46 | 1018.1 |
| 20260510041750 | 13 | 355 | 3.2 | 9.7 | 0.00 | 0.00 | 0.00 | 44 | 1018.0 |
| 20260510040751 | 13 | 346 | 6.4 | 14.5 | 0.00 | 0.00 | 0.00 | 43 | 1018.0 |
| 20260510035812 | 13 | 323 | 1.6 | 3.2 | 0.00 | 0.00 | 0.00 | 46 | 1017.8 |
| 20260510034759 | 13 | 323 | 1.6 | 4.8 | 0.00 | 0.00 | 0.00 | 45 | 1017.7 |
| 20260510033759 | 13 | 323 | 1.6 | 6.4 | 0.00 | 0.00 | 0.00 | 46 | 1017.6 |
| 20260510032800 | 13 | 323 | 4.8 | 6.4 | 0.00 | 0.00 | 0.00 | 51 | 1017.3 |
| 20260510031759 | 13 | 323 | 4.8 | 8.0 | 0.00 | 0.00 | 0.00 | 52 | 1017.2 |
| 20260510030743 | 13 | 321 | 6.4 | 8.0 | 0.00 | 0.00 | 0.00 | 48 | 1017.0 |
| 20260510025743 | 12 | 315 | 4.8 | 4.8 | 0.00 | 0.00 | 0.00 | 48 | 1016.8 |
| 20260510024746 | 12 | 315 | 4.8 | 4.8 | 0.00 | 0.00 | 0.00 | 48 | 1016.5 |
| 20260510023750 | 13 | 315 | 1.6 | 4.8 | 0.00 | 0.00 | 0.00 | 46 | 1016.3 |
| 20260510022753 | 13 | 315 | 1.6 | 4.8 | 0.00 | 0.00 | 0.00 | 44 | 1016.3 |
| 20260510021754 | 15 | 315 | 3.2 | 4.8 | 0.00 | 0.00 | 0.00 | 43 | 1016.0 |
| 20260510020755 | 15 | 315 | 1.6 | 6.4 | 0.00 | 0.00 | 0.00 | 40 | 1016.0 |
| 20260510015755 | 16 | 315 | 4.8 | 8.0 | 0.00 | 0.00 | 0.00 | 40 | 1016.0 |
| 20260510014817 | 16 | 312 | 6.4 | 9.7 | 0.00 | 0.00 | 0.00 | 39 | 1015.9 |
| 20260510013742 | 17 | 317 | 8.0 | 12.9 | 0.00 | 0.00 | 0.00 | 37 | 1015.8 |
| 20260510012803 | 17 | 321 | 9.7 | 17.7 | 0.00 | 0.00 | 0.00 | 37 | 1015.7 |
| 20260510011741 | 17 | 292 | 11.3 | 17.7 | 0.00 | 0.00 | 0.00 | 36 | 1015.7 |
| 20260510010804 | 17 | 314 | 11.3 | 24.1 | 0.00 | 0.00 | 0.00 | 35 | 1015.6 |
| 20260510005748 | 17 | 298 | 20.9 | 20.9 | 0.00 | 0.00 | 0.00 | 35 | 1015.5 |
| 20260510004751 | 18 | 331 | 11.3 | 17.7 | 0.00 | 0.00 | 0.00 | 36 | 1015.5 |
| 20260510003753 | 18 | 344 | 8.0 | 19.3 | 0.00 | 0.00 | 0.00 | 35 | 1015.6 |
| 20260510002754 | 18 | 304 | 11.3 | 27.4 | 0.00 | 0.00 | 0.00 | 34 | 1015.5 |
| 20260510001752 | 18 | 258 | 11.3 | 19.3 | 0.00 | 0.00 | 0.00 | 36 | 1015.5 |
| 20260510000756 | 18 | 298 | 14.5 | 24.1 | 0.00 | 0.00 | 0.00 | 34 | 1015.6 |
| 20260509235816 | 17 | 301 | 24.1 | 30.6 | 0.00 | 0.00 | 0.00 | 35 | 1015.6 |
| 20260509234755 | 17 | 293 | 20.9 | 32.2 | 0.00 | 0.00 | 0.00 | 35 | 1015.5 |
| 20260509233757 | 18 | 312 | 14.5 | 22.5 | 0.00 | 0.00 | 0.00 | 34 | 1015.4 |
| 20260509232759 | 18 | 257 | 11.3 | 16.1 | 0.00 | 0.00 | 0.00 | 36 | 1015.3 |
| 20260509231759 | 17 | 283 | 9.7 | 22.5 | 0.00 | 0.00 | 0.00 | 36 | 1015.4 |
| 20260509230819 | 18 | 281 | 16.1 | 27.4 | 0.00 | 0.00 | 0.00 | 36 | 1015.4 |
| 20260509225758 | 17 | 299 | 9.7 | 20.9 | 0.00 | 0.00 | 0.00 | 37 | 1015.3 |
| 20260509224742 | 18 | 302 | 11.3 | 30.6 | 0.00 | 0.00 | 0.00 | 35 | 1015.3 |
| 20260509223746 | 17 | 294 | 14.5 | 22.5 | 0.00 | 0.00 | 0.00 | 36 | 1015.3 |
| 20260509222806 | 18 | 313 | 8.0 | 27.4 | 0.00 | 0.00 | 0.00 | 35 | 1015.3 |
| 20260509221743 | 17 | 296 | 6.4 | 16.1 | 0.00 | 0.00 | 0.00 | 35 | 1015.3 |
| 20260509220747 | 17 | 287 | 6.4 | 19.3 | 0.00 | 0.00 | 0.00 | 37 | 1015.3 |
| 20260509215752 | 18 | 304 | 16.1 | 30.6 | 0.00 | 0.00 | 0.00 | 34 | 1015.4 |
| 20260509214752 | 17 | 302 | 9.7 | 20.9 | 0.00 | 0.00 | 0.00 | 34 | 1015.3 |
| 20260509213813 | 17 | 313 | 11.3 | 19.3 | 0.00 | 0.00 | 0.00 | 36 | 1015.6 |
| 20260509212751 | 17 | 278 | 16.1 | 22.5 | 0.00 | 0.00 | 0.00 | 36 | 1015.7 |
| 20260509211748 | 17 | 263 | 11.3 | 17.7 | 0.00 | 0.00 | 0.00 | 37 | 1015.7 |
| 20260509210748 | 17 | 277 | 12.9 | 20.9 | 0.00 | 0.00 | 0.00 | 35 | 1015.8 |
| 20260509205756 | 17 | 262 | 17.7 | 37.0 | 0.00 | 0.00 | 0.00 | 37 | 1015.7 |
| 20260509204758 | 17 | 277 | 9.7 | 29.0 | 0.00 | 0.00 | 0.00 | 36 | 1015.7 |
| 20260509203756 | 17 | 321 | 8.0 | 27.4 | 0.00 | 0.00 | 0.00 | 36 | 1015.6 |
| 20260509202741 | 17 | 322 | 16.1 | 25.7 | 0.00 | 0.00 | 0.00 | 35 | 1015.5 |
| 20260509201744 | 17 | 271 | 14.5 | 20.9 | 0.00 | 0.00 | 0.00 | 35 | 1015.6 |
| 20260509200745 | 16 | 262 | 11.3 | 20.9 | 0.00 | 0.00 | 0.00 | 35 | 1015.7 |
| 20260509195746 | 16 | 282 | 3.2 | 17.7 | 0.00 | 0.00 | 0.00 | 37 | 1015.5 |
| 20260509194749 | 16 | 228 | 9.7 | 22.5 | 0.00 | 0.00 | 0.00 | 36 | 1015.7 |
| 20260509193750 | 16 | 315 | 6.4 | 11.3 | 0.00 | 0.00 | 0.00 | 38 | 1015.6 |
| 20260509192756 | 16 | 240 | 4.8 | 16.1 | 0.00 | 0.00 | 0.00 | 40 | 1015.7 |
| 20260509191758 | 16 | 354 | 6.4 | 19.3 | 0.00 | 0.00 | 0.00 | 36 | 1015.7 |
| 20260509190820 | 16 | 143 | 1.6 | 16.1 | 0.00 | 0.00 | 0.00 | 39 | 1015.8 |
| 20260509185741 | 15 | 293 | 6.4 | 19.3 | 0.00 | 0.00 | 0.00 | 42 | 1015.8 |
| 20260509184743 | 16 | 161 | 9.7 | 9.7 | 0.00 | 0.00 | 0.00 | 40 | 1015.8 |
| 20260509183807 | 15 | 151 | 3.2 | 9.7 | 0.00 | 0.00 | 0.00 | 42 | 1015.7 |
| 20260509182748 | 15 | 250 | 8.0 | 16.1 | 0.00 | 0.00 | 0.00 | 40 | 1015.9 |
| 20260509181808 | 15 | 75 | 1.6 | 16.1 | 0.00 | 0.00 | 0.00 | 43 | 1015.8 |
| 20260509180746 | 15 | 127 | 9.7 | 11.3 | 0.00 | 0.00 | 0.00 | 41 | 1015.8 |
| 20260509175745 | 14 | 352 | 8.0 | 11.3 | 0.00 | 0.00 | 0.00 | 41 | 1015.8 |
| 20260509174750 | 14 | 201 | 4.8 | 16.1 | 0.00 | 0.00 | 0.00 | 42 | 1015.8 |
| 20260509173750 | 14 | 174 | 9.7 | 16.1 | 0.00 | 0.00 | 0.00 | 43 | 1015.8 |
| 20260509172752 | 14 | 118 | 12.9 | 19.3 | 0.00 | 0.00 | 0.00 | 42 | 1015.8 |
| 20260509171753 | 13 | 221 | 0.0 | 6.4 | 0.00 | 0.00 | 0.00 | 43 | 1015.7 |
| 20260509170757 | 13 | 135 | 1.6 | 14.5 | 0.00 | 0.00 | 0.00 | 43 | 1015.8 |
| 20260509165757 | 13 | 105 | 9.7 | 11.3 | 0.00 | 0.00 | 0.00 | 43 | 1015.7 |
| 20260509164818 | 13 | 156 | 8.0 | 14.5 | 0.00 | 0.00 | 0.00 | 43 | 1015.8 |
| 20260509163758 | 13 | 65 | 6.4 | 11.3 | 0.00 | 0.00 | 0.00 | 42 | 1015.8 |
| 20260509162742 | 13 | 100 | 3.2 | 11.3 | 0.00 | 0.00 | 0.00 | 45 | 1015.8 |
| 20260509161744 | 12 | 106 | 9.7 | 9.7 | 0.00 | 0.00 | 0.00 | 45 | 1015.8 |
| 20260509160744 | 12 | 67 | 0.0 | 9.7 | 0.00 | 0.00 | 0.00 | 47 | 1015.7 |
| 20260509155748 | 12 | 60 | 3.2 | 12.9 | 0.00 | 0.00 | 0.00 | 46 | 1015.7 |
| 20260509154749 | 12 | 82 | 3.2 | 9.7 | 0.00 | 0.00 | 0.00 | 47 | 1015.6 |
| 20260509153753 | 11 | 128 | 4.8 | 14.5 | 0.00 | 0.00 | 0.00 | 48 | 1015.5 |
| 20260509152756 | 11 | 90 | 9.7 | 16.1 | 0.00 | 0.00 | 0.00 | 48 | 1015.4 |
| 20260509151738 | 10 | 96 | 8.0 | 17.7 | 0.00 | 0.00 | 0.00 | 51 | 1015.4 |
| 20260509150740 | 10 | 107 | 4.8 | 11.3 | 0.00 | 0.00 | 0.00 | 53 | 1015.6 |
| 20260509145749 | 10 | 90 | 6.4 | 16.1 | 0.00 | 0.00 | 0.00 | 55 | 1015.5 |
| 20260509144747 | 10 | 90 | 6.4 | 17.7 | 0.00 | 0.00 | 0.00 | 54 | 1015.5 |
| 20260509143747 | 9 | 92 | 8.0 | 17.7 | 0.00 | 0.00 | 0.00 | 55 | 1015.4 |
| 20260509142748 | 9 | 105 | 8.0 | 16.1 | 0.00 | 0.00 | 0.00 | 56 | 1015.4 |
| 20260509141754 | 8 | 91 | 14.5 | 16.1 | 0.00 | 0.00 | 0.00 | 56 | 1015.2 |
| 20260509140754 | 8 | 96 | 11.3 | 16.1 | 0.00 | 0.00 | 0.00 | 57 | 1015.3 |
| 20260509135755 | 8 | 89 | 14.5 | 17.7 | 0.00 | 0.00 | 0.00 | 56 | 1015.2 |
| 20260509134755 | 8 | 88 | 6.4 | 16.1 | 0.00 | 0.00 | 0.00 | 58 | 1015.0 |
| 20260509133754 | 7 | 36 | 3.2 | 11.3 | 0.00 | 0.00 | 0.00 | 61 | 1015.0 |
| 20260509132800 | 7 | 36 | 3.2 | 8.0 | 0.00 | 0.00 | 0.00 | 65 | 1015.0 |
| 20260509131740 | 6 | 36 | 0.0 | 8.0 | 0.00 | 0.00 | 0.00 | 68 | 1015.0 |